Tracking 25656 objects as of 21-May-2022
HD Live streaming from Space Station
objects crossing your sky now

ONEWEB-0238

Track ONEWEB-0238 now!
10-day predictions
ONEWEB-0238 is classified as:


NORAD ID: 48784
Int'l Code: 2021-045T
Perigee: 1,207.4 km
Apogee: 1,210.3 km
Inclination: 87.9 °
Period: 109.5 minutes
Semi major axis: 7579 km
RCS: Unknown
Launch date: May 28, 2021
Source: United Kingdom (UK)
Launch site: VOSTOCHNY COSMODROME (VOSTO)
aabbcc
Your satellite tracking list
Your tracking list is empty




NASA's NSSDC Master Catalog

Two Line Element Set (TLE):
1 48784U 21045T   22141.25001157 -.00040836  00000-0 -10896+0 0  9990
2 48784  87.9149 195.1787 0001893 105.1369 251.5880 13.15567708  1301
Source of the keplerian elements: AFSPC